Location: Zagreb
(45.8000°N, 16.0000°E)
Time: 17:28:36
(UTC+01:00)

Tiros 1 despin weight - Pass Details

Date: 27 January 2020
Orbit: 594 x 642 km, 48.2° (Epoch: 25 February)

Event Time Altitude Azimuth Distance (km) Brightness Sun altitude
Rises 11:11:55 0° 242° (WSW) 2,850 ? 24.4°
Reaches altitude 10° 11:14:12 10° 241° (WSW) 1,956 ? 24.5°
Maximum altitude 11:18:40 73° 157° (SSE) 647 ? 24.7°
Drops below altitude 10° 11:23:14 10° 73° (ENE) 1,993 ? 24.8°
Sets 11:25:35 0° 72° (ENE) 2,910 ? 24.9°
